Location: Newark
(26.9047°N, 51.5475°E)
Time: 10:03:40
(UTC+00:00)

Envisat - Visible Passes

Search period start: 15 December 2019 00:00
Search period end: 25 December 2019 00:00
Orbit: 764 x 766 km, 98.1° (Epoch: 15 December)

Date Brightness Start Highest point End Pass type
(mag) Time Alt. Az. Time Alt. Az. Time Alt. Az.
15 Dec 3.0 14:26:54 10° SSE 14:31:53 62° ENE 14:36:53 10° N visible
16 Dec 4.6 02:43:39 10° NNE 02:48:24 40° E 02:53:08 10° SSE visible
16 Dec 5.1 15:29:56 10° SSW 15:34:09 26° W 15:38:22 10° NW visible
17 Dec 6.0 02:08:31 10° ENE 02:11:29 16° E 02:14:27 10° SE visible
17 Dec 3.3 14:52:17 10° S 14:57:19 69° WSW 15:02:23 10° NNW visible
18 Dec 3.2 14:15:49 10° SSE 14:20:38 46° ENE 14:25:29 10° N visible
18 Dec 6.1 15:57:21 10° WSW 15:59:47 13° W 16:02:12 10° WNW visible
19 Dec 5.2 02:32:40 10° NE 02:37:06 30° E 02:41:30 10° SSE visible
19 Dec 4.7 15:18:15 10° SSW 15:22:50 35° W 15:27:26 10° NNW visible
20 Dec 6.3 01:58:33 10° ENE 02:00:08 11° E 02:01:43 10° ESE visible
20 Dec 3.0 14:40:59 10° SSE 14:46:03 90° SW 14:51:09 10° NNW visible
21 Dec 3.6 14:04:51 10° SE 14:09:25 35° ENE 14:14:00 10° N visible
21 Dec 5.7 15:45:02 10° SW 15:48:25 18° W 15:51:50 10° NW visible
22 Dec 5.7 02:21:48 10° NE 02:25:46 23° E 02:29:43 10° SSE visible
22 Dec 4.1 15:06:42 10° S 15:11:32 46° W 15:16:23 10° NNW visible
23 Dec 2.9 14:29:46 10° SSE 14:34:47 69° ENE 14:39:50 10° N visible
24 Dec 4.4 02:46:30 10° NNE 02:51:20 44° E 02:56:09 10° S visible
24 Dec 5.3 15:33:04 10° SSW 15:37:05 24° W 15:41:08 10° NW visible
